Lapse_Rate
7.0 7.3 7.1 7.5 7.3 7.5 8.3 7.9 8.0 7.7 7.5 7.5 7.5 7.6 7.2 6.9 6.9 6.7 6.7 5.9 5.8 6.3 6.6 6.9 6.9 6.9 6.7 6.6 6.7 6.8 6.5 6.3 6.3 6.7 6.3 5.8 5.7 5.6 5.5 5.4 5.3 5.2 5.5 5.4 5.3 5.2 5.1 5.0 4.9
7.1 7.3 8.0 7.7 7.5 8.4 8.1 8.0 7.7 7.6 7.5 7.5 7.2 6.8 6.6 6.6 7.0 7.4 6.4 5.8 5.8 6.2 6.4 6.5 7.0 6.8 6.7 6.6 6.8 6.8 6.7 6.7 6.5 6.5 6.3 6.1 5.9 5.8 5.5 5.4 5.4 5.4 5.5 5.5 5.3 5.2 5.2 5.1 5.0
7.2 7.4 6.9 7.1 7.9 8.7 8.6 8.0 7.8 8.0 7.7 7.6 7.5 6.9 6.5 6.0 5.7 6.3 6.4 6.4 6.3 6.1 6.1 6.3 6.7 7.0 7.0 6.7 6.7 6.7 6.8 6.6 6.4 6.3 6.1 5.9 5.9 5.7 5.6 5.5 5.6 5.7 5.6 5.4 5.5 5.3 5.3 5.2 5.1
7.1 7.1 6.9 6.7 7.1 8.5 8.8 8.3 8.4 8.2 7.9 8.0 8.0 6.1 6.1 6.1 6.5 6.5 6.8 6.5 6.7 6.6 6.3 6.1 6.3 6.6 7.0 6.9 6.6 6.5 6.5 6.7 6.5 6.4 6.2 5.8 5.7 5.5 5.5 5.6 5.8 5.7 5.8 5.5 5.6 5.7 5.5 5.4 5.4
7.5 6.9 6.7 6.4 7.5 7.6 8.9 8.8 8.9 8.1 7.9 8.2 8.1 7.0 6.5 6.1 6.4 6.8 7.0 6.6 6.6 6.7 6.8 6.5 6.2 6.1 6.5 6.7 6.7 6.7 6.5 6.5 6.6 6.5 6.2 6.0 5.9 5.8 5.7 5.8 5.8 5.7 5.8 5.7 5.7 5.7 5.6 5.5 5.4
6.7 7.1 7.2 7.1 7.9 8.1 8.2 8.7 8.7 8.4 8.4 7.9 8.0 7.8 7.3 6.9 6.6 6.9 7.0 7.1 6.2 6.5 6.7 6.7 6.6 6.3 6.2 6.4 6.5 6.6 6.6 6.4 6.4 6.4 6.2 6.2 6.1 6.1 5.9 5.9 5.9 5.9 5.8 5.7 5.8 5.8 5.6 5.5 5.4
6.4 6.8 6.1 6.7 6.9 7.9 7.9 8.7 8.6 8.8 8.3 8.3 8.5 8.0 7.9 7.8 7.5 6.8 6.3 7.3 7.0 6.3 6.4 6.5 6.5 6.5 6.3 6.3 6.5 6.5 6.5 6.5 6.5 6.4 6.2 6.2 6.0 6.0 6.0 5.9 5.9 6.0 5.8 5.8 5.9 5.8 5.6 5.6 5.5
6.8 6.2 6.3 6.4 6.9 7.6 8.5 8.9 8.5 9.3 8.8 8.6 8.2 8.6 8.4 8.1 8.0 7.5 7.1 6.3 6.3 6.2 6.1 6.5 6.5 6.6 6.5 6.4 6.4 6.5 6.4 6.4 6.4 6.4 6.3 6.1 6.0 5.9 5.9 6.0 5.8 6.0 6.0 5.9 5.9 5.8 5.6 5.5 5.5
7.0 6.9 7.0 6.4 7.0 8.0 8.5 8.8 9.6 9.4 8.7 8.2 8.1 8.6 8.4 8.3 8.1 8.0 7.9 7.9 6.8 6.4 6.5 6.5 6.7 6.5 6.5 6.5 6.4 6.6 6.6 6.5 6.5 6.4 6.2 6.1 6.0 6.0 6.0 6.0 5.8 6.1 6.0 6.0 5.9 5.7 5.6 5.3 5.3
7.1 7.4 7.3 7.5 7.7 8.6 8.6 8.3 8.7 8.8 7.7 8.5 8.5 8.9 8.3 8.1 8.2 8.0 8.2 8.2 8.3 7.6 7.1 6.9 6.9 6.5 6.6 6.7 6.6 6.5 6.7 6.6 6.4 6.3 6.4 6.3 6.2 6.2 6.1 5.8 5.9 5.8 5.9 6.0 6.0 5.7 5.4 5.2 5.1
7.6 8.0 8.4 8.7 8.4 8.7 8.8 8.7 8.6 9.1 9.0 8.4 8.6 8.7 8.6 7.6 8.3 8.0 7.9 7.9 8.1 8.1 7.6 7.2 7.3 6.4 6.4 6.7 6.6 6.7 6.6 6.6 6.5 6.4 6.5 6.5 6.3 6.3 6.1 6.0 5.9 6.0 5.8 5.8 6.0 5.9 5.5 5.3 5.2
7.0 7.6 9.0 9.6 9.4 8.4 8.5 8.6 8.8 9.2 9.5 9.0 8.9 9.0 9.0 8.4 8.3 8.3 8.1 7.8 7.9 8.2 8.1 7.5 7.1 7.1 6.8 6.7 6.7 6.6 6.7 6.8 6.7 6.6 6.4 6.5 6.5 6.4 6.2 6.2 6.1 6.0 6.0 5.9 5.8 6.0 5.7 5.5 5.3
7.0 7.2 7.5 8.1 9.0 8.6 8.5 8.5 9.1 9.3 9.2 9.6 9.0 8.7 8.6 9.0 8.6 8.2 8.2 7.9 7.5 7.9 8.3 7.8 7.6 7.2 7.1 6.9 6.8 6.9 6.8 6.6 6.4 6.6 6.4 6.5 6.2 6.3 6.1 6.2 6.0 5.9 6.0 5.9 5.8 5.8 6.0 5.7 5.5
6.7 6.8 7.0 7.2 7.7 8.1 8.1 8.5 8.9 9.1 9.5 9.3 9.0 8.3 8.5 8.7 8.8 8.4 8.3 8.2 8.1 7.5 8.0 8.0 7.8 7.9 7.4 7.0 6.8 6.8 6.8 6.7 6.6 6.4 6.1 6.0 5.9 6.1 6.2 6.2 6.0 5.7 5.8 5.8 5.6 5.6 5.7 6.0 5.9
6.6 6.6 6.6 7.0 7.2 7.5 7.9 8.1 8.5 9.1 9.4 9.5 8.8 8.5 8.5 8.4 8.7 9.1 8.7 8.3 8.2 8.0 7.7 8.1 7.8 7.7 7.8 7.6 7.1 6.9 6.7 6.5 6.2 6.6 6.1 6.4 6.2 6.0 6.2 6.1 5.9 5.7 5.4 5.7 5.6 5.5 5.5 5.8 5.9
6.2 6.3 6.4 7.3 7.6 8.2 8.7 8.2 8.9 9.6 9.6 9.5 9.1 7.9 8.4 8.4 8.7 9.0 9.0 8.9 8.3 8.2 8.2 7.8 7.9 7.8 7.8 7.6 7.4 7.0 6.5 6.7 6.1 6.3 6.5 6.4 6.2 6.3 5.9 5.4 5.5 5.9 5.5 5.4 5.5 5.5 5.6 5.5 5.6
6.3 6.3 6.6 7.0 7.5 7.7 9.2 9.1 9.5 9.7 9.6 9.7 9.3 8.7 8.3 8.2 8.8 8.9 8.9 9.1 9.0 8.5 8.3 8.4 7.9 7.7 7.8 7.9 7.7 7.5 7.0 6.8 6.7 6.6 6.3 6.4 6.2 6.2 5.8 5.6 5.6 5.6 5.4 5.3 5.3 5.4 5.5 5.5 5.7
6.2 6.6 6.9 7.2 7.6 7.9 8.2 8.2 9.0 9.2 9.3 9.7 9.6 9.7 9.3 8.5 8.9 9.1 8.9 8.7 9.2 9.1 8.6 8.5 8.4 7.8 7.9 7.7 7.6 7.6 7.2 6.9 7.0 7.0 6.9 6.4 6.5 6.5 6.1 6.0 5.9 5.5 5.5 5.2 5.2 5.5 5.4 5.4 5.5
6.6 6.8 7.0 7.3 7.5 7.7 8.0 8.4 8.5 9.1 9.3 9.3 9.7 9.9 9.0 9.0 9.4 9.4 9.2 8.8 8.9 9.1 9.1 8.8 8.7 8.4 8.1 8.0 7.8 7.8 7.6 7.1 6.8 6.8 6.7 6.8 6.5 6.4 6.2 6.3 6.4 6.1 5.6 5.4 5.2 5.4 5.6 5.5 5.5
7.1 7.4 7.5 7.6 7.9 7.8 8.0 7.9 8.6 8.7 9.0 9.2 9.4 9.4 9.9 9.9 9.9 9.6 9.2 9.2 8.5 9.1 9.3 9.0 8.9 8.7 8.3 8.1 7.7 7.6 7.4 7.2 6.8 6.7 6.8 6.7 6.6 6.5 6.4 6.1 6.2 6.1 6.2 6.1 5.8 5.7 5.7 5.6 5.7
7.9 7.9 7.9 7.9 8.2 7.9 8.0 7.9 8.3 8.5 9.0 9.1 9.2 9.4 9.4 9.5 9.6 9.7 9.3 9.2 8.8 8.8 9.4 9.4 8.9 8.8 8.6 8.3 7.9 7.7 7.4 7.4 7.2 7.0 7.0 7.0 6.8 6.5 6.4 6.2 6.1 5.8 5.7 6.0 5.8 5.8 5.6 5.3 5.4
7.8 8.1 7.9 7.8 8.1 8.1 8.3 7.7 8.4 8.8 9.1 9.4 9.3 9.2 9.4 9.4 9.4 9.4 9.4 9.0 8.9 9.0 9.2 9.5 9.1 8.8 8.7 8.4 7.9 7.9 7.8 7.7 7.5 6.9 6.7 6.8 6.8 6.5 6.1 5.8 5.6 5.7 5.7 5.5 5.6 5.6 5.8 5.7 5.3
8.0 8.0 7.9 7.9 8.0 8.5 8.3 9.0 9.4 9.5 9.5 9.4 9.4 9.3 9.4 9.4 9.4 9.4 9.5 9.4 9.2 9.3 9.0 9.5 9.3 8.7 8.7 8.4 8.0 7.7 7.7 7.6 7.5 7.0 7.0 6.7 6.6 6.4 6.4 5.9 5.5 5.5 5.7 5.5 5.5 5.4 5.4 5.6 5.6
8.0 8.0 8.0 8.1 8.3 7.8 9.1 9.3 9.5 9.6 9.1 8.9 9.0 9.4 9.5 9.3 9.7 9.4 9.2 9.3 9.5 9.3 9.0 9.3 9.3 8.8 8.8 8.6 8.0 7.7 7.7 7.6 7.5 7.2 7.0 6.9 6.5 6.2 6.0 6.0 5.5 5.5 5.2 5.6 5.3 5.8 5.6 5.6 5.6
8.7 8.6 8.1 7.3 7.8 7.6 9.3 9.1 9.2 9.3 9.3 9.2 9.1 8.8 8.4 9.4 9.3 9.1 9.2 9.1 9.6 9.1 8.8 9.0 9.0 8.8 8.8 8.9 8.0 7.8 7.8 7.7 7.6 7.3 7.0 7.1 6.5 6.3 5.8 6.1 5.5 5.3 5.3 5.4 5.4 5.6 5.9 5.6 5.7
8.6 9.2 8.7 7.5 7.3 8.1 9.4 9.4 8.0 8.8 8.9 8.5 8.6 8.6 8.4 8.6 9.3 8.2 9.0 7.7 9.6 9.1 9.1 9.2 8.9 8.8 8.8 8.5 8.1 7.9 7.8 7.7 7.7 7.3 7.2 7.1 6.8 6.7 6.1 6.2 6.3 6.1 5.8 5.7 5.7 6.0 6.1 6.0 5.9
8.5 9.1 9.5 9.5 9.3 8.9 9.5 9.2 9.0 8.9 9.0 8.9 8.8 8.6 7.8 8.6 8.8 8.8 7.8 8.0 7.6 7.8 9.3 9.3 9.3 8.9 8.8 8.7 8.1 7.7 7.8 7.7 7.6 7.4 7.4 7.1 6.7 6.8 6.6 6.2 6.6 6.4 6.2 6.0 6.2 6.1 5.8 5.9 5.9
8.8 9.3 9.6 9.5 7.7 7.0 8.3 8.1 8.2 8.6 8.7 8.7 9.3 8.9 8.4 8.4 8.6 8.2 7.0 7.1 7.4 7.6 8.0 8.4 9.0 9.1 8.9 8.7 8.4 7.8 7.7 7.7 7.4 7.3 7.5 7.1 6.8 7.1 6.8 6.8 6.7 7.0 6.9 6.6 6.4 6.4 6.2 6.0 5.7
8.2 8.7 9.0 9.0 8.9 7.1 6.7 7.9 7.6 8.1 8.4 8.3 8.3 8.7 8.6 8.2 8.1 8.2 7.2 7.0 7.2 7.3 7.6 7.9 8.6 8.8 8.6 8.5 8.5 7.9 7.6 7.5 7.3 7.2 7.4 7.2 6.8 7.1 7.2 7.2 6.9 6.9 7.1 7.1 7.0 6.7 6.6 6.3 6.1
8.4 8.2 8.3 8.3 8.1 8.4 8.2 8.0 7.6 8.1 8.0 8.0 7.8 8.2 8.3 7.3 7.9 7.7 7.5 6.4 5.7 4.6 7.1 7.4 8.1 8.5 8.7 8.4 8.3 8.0 7.5 7.4 7.4 7.2 7.3 7.2 7.1 7.2 7.4 7.3 7.3 7.1 7.1 7.1 7.1 7.1 7.0 6.5 6.3
Wind_Speed
11 8 4 2 2 3 7 7 5 7 5 4 8 13 10 12 8 4 18 21 23 19 21 22 21 18 17 16 18 17 17 15 15 14 16 15 14 14 13 12 12 15 13 14 13 11 10 12 11
6 7 3 3 4 2 3 8 8 7 6 12 17 19 16 17 13 18 15 21 21 18 20 19 22 20 18 18 18 17 17 16 16 15 15 14 13 13 11 12 13 13 15 13 14 13 13 14 12
1 7 2 3 3 4 5 8 11 10 10 17 10 11 10 17 24 6 22 23 21 16 18 20 22 21 19 18 17 17 16 16 15 14 14 13 14 13 12 13 14 14 14 14 14 13 14 13 12
4 2 2 8 22 17 7 12 15 12 15 17 16 9 11 20 8 16 26 24 21 18 21 22 22 22 22 19 17 17 17 16 15 14 13 14 14 14 14 14 12 12 14 13 13 13 11 12 11
2 4 5 8 8 8 16 11 17 13 17 20 17 17 13 19 24 27 26 23 21 18 22 22 22 21 21 20 19 16 15 14 14 14 13 13 13 13 14 14 14 12 11 13 13 13 13 12 10
4 2 6 10 17 18 21 8 18 17 17 20 17 13 7 15 16 23 23 22 21 21 21 23 23 21 20 21 20 18 16 16 14 15 14 13 13 14 14 14 14 13 12 12 14 12 13 12 10
9 4 3 9 13 19 18 14 12 14 16 15 20 11 8 12 12 11 15 19 20 18 16 19 22 22 22 20 18 18 16 14 14 14 13 12 12 13 14 14 14 13 13 12 14 14 13 11 9
7 4 7 9 12 12 18 13 18 16 13 22 22 7 13 15 16 12 21 20 19 17 16 14 18 17 15 15 19 17 16 15 14 13 13 13 11 13 13 14 14 14 13 14 14 13 13 12 10
15 6 11 10 4 17 34 9 16 13 17 15 4 9 20 20 19 14 18 18 16 14 16 14 14 16 14 15 15 16 17 16 15 14 13 12 13 13 13 12 13 13 13 14 14 14 13 12 11
9 9 11 5 17 17 31 22 24 3 11 10 14 22 23 19 17 17 17 20 20 18 17 15 14 14 14 15 14 13 13 13 13 13 14 13 13 15 15 16 16 15 14 13 13 14 14 13 12
11 13 13 17 16 17 16 22 19 4 13 12 15 20 23 18 13 14 11 19 19 21 15 18 17 16 14 10 13 10 10 11 12 15 14 15 10 13 12 13 14 14 14 13 12 13 11 11 10
10 14 13 11 20 7 17 13 20 2 7 17 15 24 24 23 16 16 13 11 19 20 20 20 18 16 16 11 9 11 8 11 9 13 16 11 6 5 5 9 11 11 13 10 11 9 11 12 13
9 12 13 12 13 22 17 11 12 15 17 19 17 15 22 24 20 16 14 12 8 15 19 20 19 17 14 13 9 10 7 9 11 13 18 15 8 6 9 8 10 12 12 10 10 9 10 10 12
9 16 14 13 15 14 15 15 8 16 1 18 16 22 23 23 22 19 17 16 14 10 14 19 19 17 15 13 12 10 11 13 14 13 16 20 13 6 6 6 7 11 15 16 12 7 6 6 9
13 13 14 13 16 20 20 14 10 14 15 18 19 16 19 21 22 22 22 20 18 14 9 20 19 16 15 15 11 9 9 13 2 8 14 12 15 12 9 7 6 9 14 15 12 10 7 4 5
12 8 11 13 17 21 12 14 16 12 10 9 25 26 22 22 26 21 22 21 20 18 15 18 17 17 14 11 6 7 9 11 15 15 11 14 10 13 8 6 5 12 12 11 5 4 4 4 3
6 10 14 19 17 14 9 11 10 8 9 8 20 23 27 23 25 23 25 23 23 23 19 18 18 17 13 9 7 6 7 8 13 15 12 12 14 13 8 5 5 10 5 4 4 4 4 4 4
8 10 12 16 18 19 16 11 11 10 10 7 10 8 20 26 27 26 27 24 24 22 21 20 14 16 11 7 6 5 4 5 6 9 10 17 16 16 9 5 5 7 4 4 3 5 4 3 4
15 16 17 13 13 14 14 12 12 11 8 9 9 10 16 22 25 27 26 24 22 21 22 21 19 16 13 9 9 8 7 4 4 4 13 18 17 16 11 7 6 5 5 5 5 4 5 4 3
16 12 11 12 11 9 9 10 11 12 9 8 8 9 7 7 8 24 24 24 24 25 23 21 22 19 16 12 10 6 8 3 4 4 5 15 15 16 9 8 7 7 5 7 6 5 3 4 4
7 7 9 15 7 8 7 8 9 12 15 14 10 9 7 7 9 20 23 24 23 23 25 23 23 21 19 15 10 5 4 3 6 6 5 7 14 15 12 9 8 7 6 5 5 7 8 5 4
7 9 13 14 8 4 4 13 7 7 6 7 9 10 10 11 7 9 25 25 25 25 23 23 23 21 18 18 14 16 11 10 9 8 5 8 11 13 13 11 10 8 5 5 5 5 5 5 5
6 9 8 8 9 4 16 2 8 2 6 6 6 8 9 12 9 9 20 29 28 24 23 22 21 21 20 20 17 13 13 8 4 8 8 10 12 13 12 10 10 7 4 0 5 6 6 6 4
7 7 9 7 5 4 17 5 6 4 6 6 7 9 3 13 20 22 27 27 26 22 20 21 23 21 21 20 17 17 17 9 11 10 10 7 9 9 11 11 8 6 6 7 5 10 7 7 6
5 6 5 6 5 6 6 1 6 4 6 7 7 9 10 19 24 22 32 24 24 24 25 22 23 22 22 22 20 17 16 14 13 10 9 10 8 6 8 7 8 7 6 7 9 10 8 6 7
7 5 4 7 6 10 8 8 8 13 22 18 16 14 16 19 19 15 23 24 23 27 25 24 24 23 23 23 23 17 18 12 8 10 8 9 9 8 7 7 9 9 9 9 10 8 6 6 6
7 5 9 5 8 6 3 6 7 16 16 15 11 13 15 15 11 14 15 15 13 17 20 23 23 21 23 24 20 21 16 16 15 7 10 8 7 6 9 10 10 10 10 11 11 7 7 5 6
7 8 4 4 5 6 5 4 3 7 8 6 12 12 9 14 11 12 12 13 12 17 20 16 21 23 22 20 19 18 13 17 13 11 9 11 9 8 9 8 9 10 11 11 9 6 6 7 4
12 5 5 1 3 2 4 3 7 1 4 9 9 8 4 4 16 14 11 11 16 23 31 26 19 20 20 19 17 17 17 10 11 12 9 10 8 9 11 10 9 9 8 8 9 8 8 8 7
7 3 3 4 6 3 3 3 7 6 5 1 12 15 13 6 2 7 9 17 11 22 24 14 18 19 18 16 15 14 12 10 13 11 13 12 10 9 12 10 10 8 9 8 7 8 7 7 7
Wind_Direction
182 205 230 284 295 220 91 58 82 94 73 110 90 87 121 144 168 181 130 127 133 140 150 153 152 151 143 146 146 143 142 138 129 126 119 125 115 113 112 116 122 130 133 138 134 126 119 130 123
196 210 236 295 261 244 105 126 97 57 124 82 81 87 85 89 101 116 112 129 135 139 147 150 152 146 140 138 143 144 146 143 139 134 131 129 130 123 125 129 126 132 131 130 136 130 127 131 134
308 267 268 209 227 150 124 126 113 82 78 101 61 59 105 109 127 109 133 135 133 137 147 153 149 143 140 138 140 145 146 145 142 141 142 144 136 136 137 135 135 131 137 137 136 136 136 137 141
207 183 244 350 341 295 115 121 121 116 79 103 104 68 97 126 108 131 135 135 137 150 142 151 148 146 144 144 146 148 149 151 153 145 144 146 143 144 139 136 136 136 138 141 142 141 140 145 152
233 30 58 315 320 279 317 124 118 101 105 97 102 97 83 102 124 134 140 144 147 142 145 152 150 148 146 148 148 148 147 148 152 155 151 154 152 147 148 145 143 143 140 141 143 142 151 151 160
82 58 42 337 300 311 299 143 125 129 118 116 114 106 107 126 133 144 150 150 150 146 149 152 152 151 153 152 153 152 158 161 162 153 156 153 157 157 155 156 149 149 147 151 148 146 145 156 174
104 72 23 268 287 314 332 312 124 132 135 138 132 127 150 143 148 153 135 135 136 140 145 150 152 157 157 157 156 157 160 160 155 159 158 153 153 158 165 163 156 151 157 153 153 149 154 167 187
113 107 143 251 330 318 314 324 293 136 129 133 142 151 166 160 150 129 129 135 139 140 147 153 150 154 157 163 165 165 164 165 167 164 159 159 168 169 165 158 162 159 167 165 158 160 162 175 192
248 113 185 197 29 330 305 299 303 131 100 55 79 119 149 153 145 141 139 143 139 147 152 158 157 154 160 165 174 172 171 172 171 169 174 176 167 171 167 166 170 164 169 169 170 173 171 184 204
227 244 213 161 182 183 245 287 296 178 113 103 91 127 140 151 155 157 154 150 153 158 162 160 160 159 164 171 176 172 181 171 172 173 186 180 188 181 173 179 178 174 177 179 176 182 184 199 216
267 270 153 205 198 204 234 250 270 330 160 159 135 141 148 157 166 161 173 162 160 165 165 165 164 163 169 174 168 176 174 175 185 183 182 194 200 193 186 174 178 177 181 183 184 182 194 213 230
273 278 285 192 214 245 251 268 265 198 197 168 169 153 158 161 173 169 179 173 165 170 170 167 166 167 174 161 168 176 175 184 172 182 188 184 178 191 192 170 170 174 185 186 178 186 204 229 234
286 298 319 324 210 211 241 266 304 313 152 169 164 167 169 162 169 175 175 171 180 170 167 171 168 170 171 163 173 179 181 180 181 186 186 183 178 193 185 184 178 172 191 191 190 195 205 220 231
302 306 308 313 292 278 269 266 272 286 198 183 185 168 171 167 173 174 173 174 179 181 159 167 172 174 172 171 177 178 171 177 180 187 196 193 186 193 192 183 188 183 190 199 194 194 209 222 226
311 314 313 309 304 299 288 295 255 236 262 171 190 165 172 174 178 180 177 174 179 177 166 167 172 178 178 179 180 168 176 135 199 202 200 184 189 195 188 176 186 184 194 198 193 205 220 235 226
302 312 301 276 271 272 268 271 273 229 220 249 166 181 173 182 184 178 181 174 174 172 172 164 173 178 182 176 169 163 153 162 187 213 195 203 220 201 157 164 187 186 183 190 182 186 204 240 245
314 285 275 281 273 273 268 276 287 291 215 169 168 177 179 184 183 181 182 177 174 174 171 167 169 176 176 160 156 162 171 159 178 187 196 201 205 202 158 162 191 163 164 178 190 198 172 200 235
263 276 288 298 304 309 305 303 310 317 304 200 184 192 172 193 190 182 181 180 174 174 174 166 168 170 164 161 147 161 177 186 177 173 186 192 197 182 171 173 177 168 164 177 212 202 198 190 208
254 262 273 286 297 301 297 294 297 299 311 306 270 191 203 189 191 183 179 177 171 174 174 172 166 171 168 169 176 181 192 185 195 183 176 187 191 188 181 185 174 159 172 193 207 195 199 225 211
249 260 276 277 280 285 298 299 300 299 285 271 268 279 215 217 170 180 177 174 175 178 178 176 174 170 176 179 186 185 190 184 187 195 192 184 186 185 181 180 183 186 169 190 190 186 179 216 178
279 303 296 299 271 301 316 309 286 281 286 284 287 285 264 222 223 173 177 178 177 179 182 179 177 173 174 176 174 166 160 191 192 203 194 186 181 186 187 189 185 184 177 196 203 181 177 196 227
295 293 322 321 358 290 320 293 290 270 329 4 346 360 345 328 259 183 178 185 178 187 181 180 178 174 175 173 177 188 195 198 201 197 181 181 183 188 188 191 190 185 196 193 202 199 186 154 209
286 319 317 304 296 320 286 270 280 1 315 287 309 302 308 309 21 313 192 183 187 179 181 180 177 177 175 177 181 185 197 201 181 189 179 180 190 190 193 190 182 182 182 312 255 221 203 201 177
260 270 285 285 269 300 267 172 270 298 266 282 276 284 322 356 4 350 337 185 184 179 175 176 180 181 176 179 182 188 194 186 199 189 194 189 191 192 187 184 172 167 152 156 238 259 215 200 206
304 2 324 336 350 267 321 323 226 266 282 235 298 339 8 7 10 356 347 189 175 174 177 179 180 183 179 181 185 189 195 198 195 191 190 192 185 195 198 164 174 180 178 187 215 242 211 206 206
274 187 189 277 283 285 316 279 15 28 50 46 39 12 7 10 350 354 3 343 186 178 176 180 183 183 182 182 187 189 193 198 201 196 192 191 184 183 167 167 171 179 191 203 214 227 208 197 201
298 301 230 266 283 290 255 337 17 13 23 11 24 40 3 355 359 38 4 0 359 350 185 184 185 187 186 186 185 191 190 195 202 199 178 176 170 174 170 170 174 183 193 200 206 202 208 198 210
346 299 4 335 339 310 342 107 244 335 348 327 2 355 7 342 4 42 24 3 335 343 329 226 188 189 189 186 189 193 187 195 193 196 180 174 182 171 169 172 181 186 189 194 192 190 192 196 197
328 343 3 48 102 229 319 312 139 271 337 326 324 307 354 325 340 65 37 15 353 333 311 261 200 191 189 189 186 190 195 186 182 197 193 181 177 172 174 176 184 195 194 198 193 185 187 201 202
293 48 98 113 289 239 188 262 139 117 55 327 304 315 335 24 65 317 57 76 357 303 272 235 205 189 187 179 183 188 184 185 197 192 194 186 185 170 173 178 187 192 195 191 190 190 187 195 201